Theta_e
332 331 330 330 331 330 328 330 332 338 343 342 337 333 332 333 335 338 339 340 341 341 340 340 340 341 341 343 344 344 343 344 345 345 343 343 342 341 340 338 334 327
332 331 330 330 331 331 329 329 330 332 337 339 337 334 333 334 335 336 336 337 338 340 342 341 341 341 340 341 343 345 343 342 343 344 344 343 342 341 340 340 339 335
333 331 330 329 329 330 330 330 330 329 332 337 339 338 336 335 335 335 336 336 337 337 339 339 340 341 340 339 341 344 345 343 342 342 343 342 341 341 342 341 341 340
333 331 330 329 329 329 330 330 330 330 331 334 337 340 338 338 336 336 335 336 336 336 336 337 338 339 340 339 339 341 343 343 343 342 342 342 341 340 341 341 341 340
331 331 330 329 329 329 330 330 331 331 331 332 335 338 339 339 339 337 336 336 336 336 336 335 336 337 339 340 340 341 341 341 341 342 342 341 340 339 340 340 341 340
332 331 331 331 330 331 330 330 330 330 330 331 333 336 338 339 339 339 338 336 336 336 336 335 335 335 336 337 339 341 341 341 341 340 340 339 339 338 338 339 340 340
334 332 331 331 331 331 330 329 329 330 331 331 332 334 336 338 339 339 338 338 337 337 336 335 335 334 334 335 337 339 341 342 342 341 339 339 339 338 338 339 339 340
335 332 332 332 332 331 330 329 329 330 330 332 332 333 334 336 338 338 339 340 341 339 337 336 335 335 335 335 335 336 338 340 341 341 341 339 338 338 338 339 340 339
338 335 334 334 334 332 330 329 329 329 329 331 332 332 333 334 336 338 339 341 342 342 340 338 336 336 336 336 336 336 336 338 338 339 340 339 338 338 338 338 339 340
341 339 337 337 336 334 332 331 330 330 331 331 331 332 333 333 334 337 340 341 341 342 342 340 338 336 336 337 336 337 338 337 337 337 337 337 336 336 336 337 337 337
344 342 340 339 337 334 333 332 333 332 333 332 333 333 334 334 334 336 340 342 341 340 340 340 339 337 336 336 336 337 338 338 338 338 338 337 336 336 336 336 336 336
344 343 342 340 337 336 334 333 334 334 334 334 335 335 334 335 336 337 338 340 341 340 339 339 339 339 337 337 336 336 336 338 338 339 338 338 337 337 336 336 336 336
344 342 340 338 336 335 334 335 335 336 336 336 337 337 337 337 338 338 338 338 339 340 341 340 339 340 339 338 338 338 337 336 337 338 339 339 338 337 337 337 336 335
346 342 339 338 337 336 335 335 335 336 337 338 338 338 339 338 338 338 338 338 339 340 342 342 342 341 341 340 339 339 339 338 337 338 339 340 339 338 337 336 336 335
350 345 343 340 339 338 337 336 335 336 337 338 339 339 338 339 339 339 339 339 340 342 343 344 344 343 341 340 339 339 339 339 338 337 338 339 339 339 339 339 337 336
355 351 347 344 342 340 338 338 338 337 338 339 339 338 338 339 340 341 341 341 341 342 344 345 345 344 342 340 339 338 338 339 338 338 338 338 338 338 338 338 337 336
360 356 352 348 346 342 341 339 339 339 340 340 340 340 339 340 342 343 343 343 344 344 344 345 345 344 342 341 340 339 339 338 338 339 339 338 339 338 337 336 336 335
363 360 357 353 349 346 343 341 340 341 341 342 342 342 343 343 344 344 344 346 347 348 347 346 345 343 343 343 343 342 341 341 340 339 340 340 339 339 339 337 337 337
364 362 360 357 354 350 346 344 344 344 343 343 344 343 345 346 346 347 348 348 349 350 351 349 346 344 345 346 345 345 344 343 342 341 341 341 341 341 341 340 340 339
365 363 362 361 359 355 351 349 347 346 345 344 345 345 346 347 348 349 350 350 350 350 352 351 348 345 346 346 346 347 347 346 346 346 345 344 344 344 343 343 343 342
365 365 363 362 362 358 356 354 350 348 347 346 346 345 345 346 346 347 348 349 351 350 351 352 349 345 345 346 346 346 348 350 351 351 351 350 349 348 347 346 346 345
365 366 364 363 362 361 359 357 354 352 350 348 347 346 346 346 346 346 347 347 348 349 350 352 350 347 345 345 345 346 349 353 355 355 355 354 354 353 351 350 349 349
366 365 365 364 364 363 361 359 358 356 353 351 350 349 348 347 346 346 346 345 347 348 349 349 348 348 347 347 346 348 351 355 357 357 356 356 356 357 356 355 354 353
367 366 366 365 364 364 362 362 360 359 357 355 353 351 350 347 346 345 346 347 347 346 346 346 346 346 348 350 351 353 355 357 358 358 358 358 359 359 359 358 357 356
366 366 366 366 365 364 364 363 362 361 361 359 357 355 352 350 348 348 348 347 348 347 346 347 347 347 349 352 354 356 359 360 362 362 362 362 362 362 361 360 360 360
364 366 367 366 366 365 364 364 364 363 363 362 360 358 356 355 353 352 351 350 349 349 349 350 350 351 353 355 357 358 359 361 362 363 364 364 365 364 363 362 361 362
Wind_Speed
37 37 36 35 34 34 33 32 31 31 31 29 27 25 23 21 20 19 18 17 17 17 18 18 18 17 17 17 17 16 16 15 14 13 12 11 10 10 10 10 10 10
39 38 38 36 35 34 33 33 31 31 31 31 29 27 25 23 22 21 19 18 18 18 18 18 18 18 17 18 19 19 18 17 16 15 14 13 12 12 12 11 11 10
41 40 39 38 37 35 35 34 32 32 32 31 31 29 27 25 24 22 20 19 19 18 18 19 19 19 18 18 19 20 19 18 17 17 16 15 15 14 13 13 13 12
42 41 40 39 38 37 36 35 34 33 32 32 31 30 29 27 25 24 22 21 20 19 19 19 19 20 20 19 20 21 21 20 19 18 18 17 17 16 16 15 15 15
43 42 41 40 39 38 37 37 36 35 34 33 31 30 29 28 27 25 24 22 22 21 20 20 20 20 20 20 21 22 22 23 22 21 20 19 19 18 18 18 18 17
44 43 42 41 41 40 39 38 37 36 35 34 33 31 29 28 27 26 25 24 23 22 22 21 21 21 21 21 21 22 23 24 24 24 24 23 21 21 20 20 20 20
46 44 43 43 42 42 41 39 38 38 37 36 34 33 31 29 28 27 26 25 24 24 24 23 23 23 22 22 22 23 23 24 25 25 26 25 24 23 22 22 22 22
47 45 44 44 43 43 42 40 40 39 38 37 36 35 33 32 30 29 28 27 27 26 25 25 25 24 24 23 24 24 25 25 25 26 26 26 26 25 24 23 23 24
48 47 46 46 45 44 43 42 41 40 39 39 38 36 35 34 32 31 30 30 29 28 28 27 26 26 25 25 25 25 26 27 27 27 27 27 27 27 26 25 25 25
50 49 48 47 47 46 44 43 42 41 40 40 38 37 36 35 34 33 32 31 31 31 30 29 28 28 27 27 27 26 26 27 27 28 28 28 28 28 27 27 27 27
50 49 49 48 48 47 45 44 43 42 41 40 39 39 38 37 36 35 34 33 33 33 32 31 31 30 29 29 29 28 28 27 27 28 29 29 28 28 28 27 27 27
51 51 50 49 48 47 46 45 44 43 42 41 41 40 38 38 37 36 35 35 34 34 33 32 32 31 31 30 30 30 30 30 30 30 30 30 30 29 29 28 28 28
52 52 51 49 48 47 46 46 45 44 43 42 41 40 40 39 38 37 36 36 35 35 34 33 33 32 32 32 32 32 32 32 32 32 32 31 32 32 31 31 31 31
53 51 50 49 48 47 47 46 46 45 44 43 42 41 40 40 39 38 37 37 36 36 35 35 34 34 34 34 33 33 33 34 34 34 34 33 33 33 33 33 33 33
52 51 50 49 48 48 47 47 46 45 44 44 43 42 41 40 40 40 39 39 38 37 36 36 36 37 36 35 35 35 35 35 34 34 35 35 34 34 34 35 35 35
50 51 50 50 49 49 48 47 46 46 45 44 44 43 42 41 40 40 41 40 39 38 38 38 39 39 38 37 36 35 35 35 35 35 35 35 36 36 36 36 36 37
48 49 50 50 50 49 48 47 46 46 45 45 44 43 42 41 40 40 40 41 40 40 39 39 40 40 39 39 37 36 36 36 36 36 36 36 36 37 37 37 37 38
46 46 48 49 49 49 48 47 46 46 46 45 44 44 43 41 40 40 39 39 39 39 39 39 38 38 38 39 38 37 36 36 37 37 37 37 37 37 38 37 38 38
45 45 45 47 47 48 48 47 47 47 47 46 45 44 43 42 41 40 39 38 38 39 39 38 37 36 37 37 37 36 35 35 36 37 38 39 38 38 38 38 38 39
44 44 44 44 44 45 46 47 47 47 46 46 45 44 43 43 42 41 40 39 39 39 39 39 37 37 36 36 35 35 34 35 35 36 38 40 40 40 40 40 40 39
44 44 43 43 43 43 44 45 46 46 46 46 45 45 44 44 43 42 41 41 41 41 41 41 39 38 36 36 35 34 33 34 35 36 38 39 41 41 42 42 42 42
44 43 43 43 43 43 43 44 45 45 45 45 45 45 45 44 44 43 43 43 43 42 42 42 42 40 38 37 36 35 34 35 35 36 37 39 40 41 42 43 43 44
44 44 43 43 42 43 43 44 44 44 44 44 45 45 46 45 45 44 44 44 44 43 43 44 43 42 41 40 38 37 36 37 37 37 38 39 40 40 41 42 43 45
41 43 44 43 43 43 43 43 43 43 43 43 44 45 46 46 45 45 45 45 45 44 44 44 44 43 42 42 41 40 39 39 39 39 40 41 40 40 40 42 43 45
38 41 43 43 43 42 42 42 41 41 41 42 43 44 44 45 45 45 46 46 46 46 45 45 45 44 43 43 43 41 40 38 38 38 40 41 40 40 40 41 43 44
37 38 41 42 42 41 41 40 40 39 40 40 41 42 42 43 44 44 45 45 46 46 46 46 46 45 44 43 42 41 40 38 38 39 40 39 38 39 40 41 42 43
Wind_Direction
215 213 213 213 213 215 217 218 214 211 212 216 220 222 223 224 223 221 219 218 217 216 218 219 219 220 217 217 220 223 225 226 226 230 232 234 231 228 227 227 235 240
216 214 214 215 215 216 218 220 218 216 215 217 221 224 225 226 227 227 225 224 222 219 220 221 220 221 219 218 220 223 227 227 229 230 232 237 237 235 237 237 239 239
217 216 215 216 217 217 218 220 221 220 219 219 220 222 224 226 228 229 229 228 228 225 225 225 224 224 222 219 219 224 229 231 232 233 233 238 241 242 243 243 245 242
218 218 217 217 218 218 218 219 221 222 222 221 221 221 222 224 227 229 229 230 231 231 230 229 228 226 223 221 221 224 229 234 236 237 236 237 240 244 245 246 247 247
220 220 219 218 218 218 218 219 221 223 224 224 224 223 222 222 224 227 228 230 232 233 234 233 233 230 225 223 223 225 228 232 235 238 238 239 241 244 245 246 247 248
221 221 221 220 218 218 219 220 222 224 225 226 226 225 225 224 225 225 226 228 231 233 235 236 236 234 231 228 226 228 230 230 233 236 239 241 243 244 245 246 248 248
221 221 221 221 220 219 220 222 222 223 225 227 228 227 227 227 227 228 228 229 230 232 235 237 238 237 236 233 230 231 233 234 234 236 239 242 242 244 245 245 248 250
222 222 222 222 221 221 222 223 223 224 225 226 227 229 229 228 229 230 231 231 231 232 235 237 240 240 239 237 235 234 235 236 238 239 239 240 241 243 244 244 247 249
223 223 222 222 222 222 223 224 224 224 225 225 227 229 230 230 230 230 231 232 233 233 234 236 239 241 241 241 240 238 238 238 240 242 242 242 243 243 244 244 245 248
222 223 223 222 222 223 225 225 226 225 225 226 227 228 229 232 232 231 230 231 233 234 235 236 238 241 242 243 243 243 242 241 241 243 245 247 248 249 247 245 245 247
222 223 223 223 224 224 226 227 226 227 226 226 227 228 229 231 233 232 231 231 233 235 237 237 238 241 243 243 245 246 245 244 243 244 246 249 251 253 252 250 249 250
222 223 224 225 226 226 227 227 227 227 228 227 227 228 229 231 231 232 233 232 234 235 237 239 240 241 244 245 246 247 247 247 246 246 247 248 250 252 254 254 254 255
222 224 225 227 228 228 228 228 227 227 227 228 228 228 228 230 231 232 234 235 236 236 237 240 242 243 245 246 247 247 248 248 248 249 248 248 249 250 252 253 255 258
223 225 227 228 229 229 229 229 228 228 228 229 229 229 228 230 231 233 235 237 238 238 238 240 242 243 245 245 245 246 247 248 249 250 250 250 250 250 251 253 254 256
224 226 227 228 228 228 228 228 229 229 228 228 230 231 231 231 232 233 235 237 238 239 240 240 241 243 245 245 245 245 245 247 249 250 251 252 252 252 252 253 254 256
224 225 226 226 227 228 228 228 228 228 228 228 230 232 234 233 232 232 233 235 237 238 240 241 242 244 245 247 247 246 246 247 248 250 252 252 253 254 254 254 255 257
225 225 225 225 226 227 228 228 228 227 228 228 229 231 233 234 232 232 233 234 235 237 239 242 244 245 246 247 248 248 247 247 248 250 252 253 254 255 256 257 257 258
226 226 226 226 226 226 227 228 228 227 227 227 228 230 231 232 233 233 233 234 234 236 238 241 245 247 248 248 248 248 248 248 248 249 251 253 255 256 258 259 259 260
227 227 227 227 227 226 227 228 227 226 226 227 228 229 229 231 232 233 233 233 235 236 237 240 246 249 249 249 249 249 249 248 248 249 250 252 254 257 259 260 261 262
227 228 229 229 229 228 227 227 227 227 227 227 227 227 228 229 231 233 233 233 235 238 239 241 246 250 250 251 251 251 250 249 249 249 251 252 254 256 258 259 261 262
226 228 229 230 230 229 228 228 228 228 227 227 227 227 228 229 230 232 234 234 236 238 240 242 246 250 251 252 253 253 252 251 250 251 252 253 254 255 257 258 260 261
226 227 229 230 230 229 229 228 228 228 228 227 226 227 228 229 230 231 233 235 236 237 239 242 245 248 250 252 254 254 254 252 252 253 253 254 255 256 256 258 259 259
226 226 227 228 229 229 230 230 229 229 229 228 227 226 226 227 229 231 232 234 236 237 239 241 244 247 249 250 252 252 252 252 253 254 256 256 257 257 257 259 260 260
228 227 226 228 229 230 230 230 230 230 230 230 229 228 227 228 229 230 231 233 235 237 240 242 244 247 248 249 250 250 250 251 253 255 258 259 260 260 260 261 262 262
230 228 227 227 228 230 231 231 231 232 231 231 231 230 229 229 229 230 231 232 234 237 240 242 244 247 247 247 248 248 249 251 253 255 257 259 260 262 263 264 265 265
231 230 228 227 227 229 231 232 232 232 231 231 231 232 231 230 229 230 232 233 235 236 239 241 244 246 246 246 247 247 248 251 253 255 257 258 259 261 263 265 267 267